Change the Weather History Date:

Tuesday, May 27, 2014

  Actual Average Record
Temperature  
Mean Temperature 58 °F 56 °F  
Max Temperature 77 °F 70 °F 92 °F (1986)
Min Temperature 38 °F 43 °F 28 °F (1973)
Degree Days  
Heating Degree Days 7 9  
Month to date heating degree days 294 326  
Since 1 July heating degree days 7286 7089  
Cooling Degree Days 0 0  
Month to date cooling degree days 0 0  
Year to date cooling degree days 0 0  
Growing Degree Days 7 (Base 50)    
Moisture  
Dew Point 40 °F    
Average Humidity 59    
Maximum Humidity 92    
Minimum Humidity 25    
Precipitation  
Precipitation T in 0.08 in 0.78 in (2012)
Month to date precipitation 0.95 1.66  
Year to date precipitation 6.79 5.43  
Snow  
Snow 0.00 in - - ()
Month to date snowfall 0.1  
Year to date snowfall 51.9  
Since 1 July snowfall 65.8  
Snow Depth 0.00 in    
Sea Level Pressure  
Sea Level Pressure 30.02 in    
Wind  
Wind Speed 7 mph (NNW)    
Max Wind Speed 24 mph    
Max Gust Speed 30 mph    
Visibility 10 miles    
Events Rain    
T = Trace of Precipitation, MM = Missing Value Source: NWS Daily Summary

Daily Weather History Graph

Daily Weather History Graph

Search for Another Location

Airport or City:

Trip Planner

Search our weather history database for the weather conditions in past years. The results will help you decide how hot, cold, wet, or windy it might be!

Date:

Astronomy

May. 27, 2014 Rise Set
Actual Time 5:49 AM MDT 9:18 PM MDT
Civil Twilight 5:11 AM MDT 9:56 PM MDT
Nautical Twilight 4:21 AM MDT 10:46 PM MDT
Astronomical Twilight 3:15 AM MDT 11:53 PM MDT
Moon 5:21 AM MDT (5/27) 8:19 PM MDT (5/27)
Length of Visible Light 16h 45m
Length of Day
15h 29m
Waning Crescent, 1% of the Moon is Illuminated
May 27
Waning Crescent
May 28
New
Jun 5
First Quarter
Jun 12
Full
Jun 19
Last Quarter

Hourly Weather History & Observations

Time (MDT) Temp. Windchill Dew Point Humidity Pressure Visibility Wind Dir Wind Speed Gust Speed Precip Events Conditions
12:53 AM 46.9 °F - 39.0 °F 74% 30.11 in 10.0 mi NNW 4.6 mph - N/A   Clear
1:53 AM 46.0 °F - 39.0 °F 76% 30.11 in 10.0 mi North - - N/A   Clear
2:53 AM 43.0 °F - 37.9 °F 82% 30.12 in 10.0 mi North - - N/A   Clear
3:53 AM 41.0 °F - 37.0 °F 86% 30.13 in 10.0 mi North - - N/A   Clear
4:53 AM 39.0 °F 36.8 °F 36.0 °F 89% 30.13 in 10.0 mi NW 3.5 mph - N/A   Clear
5:53 AM 37.9 °F - 36.0 °F 93% 30.14 in 10.0 mi Calm Calm - N/A   Clear
6:53 AM 41.0 °F 39.0 °F 37.0 °F 86% 30.14 in 10.0 mi SSE 3.5 mph - N/A   Clear
7:53 AM 46.0 °F - 39.9 °F 79% 30.14 in 10.0 mi Calm Calm - N/A   Clear
8:53 AM 50.0 °F - 39.9 °F 68% 30.13 in 10.0 mi SE 3.5 mph - N/A   Clear
9:53 AM 55.0 °F - 41.0 °F 59% 30.10 in 10.0 mi Calm Calm - N/A   Clear
10:53 AM 61.0 °F - 41.0 °F 48% 30.07 in 10.0 mi NNW 4.6 mph - N/A   Clear
11:53 AM 63.0 °F - 42.1 °F 46% 30.04 in 10.0 mi West 5.8 mph - N/A   Clear
12:53 PM 70.0 °F - 39.9 °F 33% 30.00 in 10.0 mi Variable 5.8 mph - N/A   Clear
1:53 PM 73.0 °F - 41.0 °F 31% 29.96 in 10.0 mi East 5.8 mph - N/A   Clear
2:53 PM 73.4 °F - 37.4 °F 27% 29.96 in 10.0 mi North 4.6 mph - N/A   Overcast
3:53 PM 75.9 °F - 37.0 °F 24% 29.91 in 10.0 mi Variable 3.5 mph - N/A   Scattered Clouds
4:53 PM 68.0 °F - 44.1 °F 42% 29.95 in 10.0 mi West 19.6 mph 29.9 mph 0.00 in Rain Light Rain
5:09 PM 71.1 °F - 44.1 °F 38% 29.96 in 10.0 mi NW 15.0 mph - 0.00 in   Mostly Cloudy
5:53 PM 70.0 °F - 43.0 °F 38% 29.93 in 10.0 mi NNW 9.2 mph - 0.00 in   Clear
6:53 PM 70.0 °F - 42.1 °F 36% 29.92 in 10.0 mi North 16.1 mph 24.2 mph N/A   Partly Cloudy
7:53 PM 69.1 °F - 42.1 °F 38% 29.91 in 10.0 mi NNW 15.0 mph 20.7 mph N/A   Mostly Cloudy
8:53 PM 64.9 °F - 42.1 °F 43% 29.91 in 10.0 mi NW 5.8 mph - N/A   Mostly Cloudy
9:53 PM 64.0 °F - 42.1 °F 45% 29.91 in 10.0 mi NNW 8.1 mph - N/A   Overcast
10:53 PM 60.1 °F - 42.1 °F 51% 29.91 in 10.0 mi NW 10.4 mph - N/A   Clear
11:53 PM 55.0 °F - 45.0 °F 69% 29.88 in 10.0 mi NW 5.8 mph - N/A   Clear